This is the latest recevied weather packets stored in our database for station/object 9D9-WX. If no packets are shown the sender has not sent any weather packets the latest 10 day(s).
| Time | Temp. | Humidity | Pressure | Rain* | Wind** | Luminosity | Snow |
|---|---|---|---|---|---|---|---|
| 1777078827 | 15.56° C | 82% | 978.7 hPa | 0 mm | - | - | - |
| 1777077911 | 15.56° C | 80% | 979.4 hPa | 0 mm | - | - | - |
| 1777077024 | 15.56° C | 82% | 979.6 hPa | 0 mm | - | - | - |
| 1777076113 | 16.11° C | 82% | 979.6 hPa | 0 mm | - | - | - |
| 1777075229 | 16.11° C | 82% | 979.6 hPa | 0 mm | - | - | - |
| 1777074314 | 16.67° C | 84% | 979 hPa | 0.51 mm | - | - | - |
| 1777073424 | 16.67° C | 82% | 978.6 hPa | 0.51 mm | - | - | - |
| 1777072511 | 17.22° C | 82% | 978.7 hPa | 0 mm | - | - | - |
| 1777071628 | 17.78° C | 82% | 978.7 hPa | 0 mm | - | - | - |
| 1777070711 | 17.78° C | 77% | 977.8 hPa | 0.25 mm | - | - | - |
| 1777069819 | 17.78° C | 69% | 978.6 hPa | 0.25 mm | - | - | - |
| 1777068914 | 18.33° C | 69% | 978.7 hPa | 0 mm | - | - | - |
| 1777068025 | 18.89° C | 69% | 978.7 hPa | 0 mm | - | - | - |
| 1777067114 | 18.89° C | 68% | 978.2 hPa | 0 mm | - | - | - |
| 1777066225 | 19.44° C | 75% | 977.8 hPa | 0 mm | - | - | - |
| 1777065311 | 19.44° C | 75% | 977.8 hPa | 0 mm | - | - | - |
| 1777064428 | 19.44° C | 75% | 977.8 hPa | 0 mm | - | - | - |
| 1777063513 | 20° C | 74% | 977.2 hPa | 0 mm | - | - | - |
| 1777062625 | 20° C | 76% | 977.2 hPa | 0 mm | - | - | - |
| 1777061712 | 20.56° C | 76% | 977.2 hPa | 0 mm | - | - | - |
| 1777060829 | 20.56° C | 76% | 977.2 hPa | 0 mm | - | - | - |
| 1777059912 | 21.11° C | 58% | 977.6 hPa | 0 mm | - | - | - |
| 1777059020 | 21.11° C | 58% | 977.6 hPa | 0 mm | - | - | - |
| 1777058112 | 22.78° C | 58% | 977.7 hPa | 0 mm | - | - | - |
| 1777057229 | 23.89° C | 58% | 977.7 hPa | 0 mm | - | - | - |
* Rain latest hour (hover to see other rain measurements)
** Current wind speed in m/s (hover to see current wind gust speed)